Regional Weather Roundup
Issued by NWS Jackson, KY

Home | Current Version | Previous Version | Graphics & Text | Print | Product List | Glossary On
Versions: 1 2 3 4 5 6 7 8 9 10 11 12 13 14 15 16 17 18 19 20 21 22 23 24 25 26 27
000
ASUS43 KJKL 240110
RWRJKL

EAST KENTUCKY HOURLY WEATHER ROUNDUP
NATIONAL WEATHER SERVICE JACKSON KY
900 PM EDT SAT JUL 23 2016

NOTE: "FAIR" INDICATES FEW OR NO CLOUDS BELOW 12,000 FEET WITH
NO SIGNIFICANT WEATHER AND/OR OBSTRUCTIONS TO VISIBILITY.

* THESE REPORTS ARE NOT UNDER NWS QUALITY CONTROL AND MAY NOT
  REPORT WEATHER SUCH AS PRECIPITATION AND FOG.

KYZ079-080-083-085-087-088-110-112-115-119-120-240200
...EASTERN KENTUCKY...

CITY           SKY/WX    TMP DP  RH WIND       PRES   REMARKS
JACKSON        CLEAR     83  72  69 SE5       30.01R
LONDON         CLEAR     84  69  60 SW5       30.00R
SOMERSET*      CLEAR     81  72  74 CALM      30.00S
MONTICELLO*    PTCLDY   N/A N/A N/A E9        30.02R
WILLIAMSBURG*  CLEAR     81  77  89 SW3       30.02R
MIDDLESBORO*   MOCLDY    75  73  92 CALM      30.01S
HARLAN APT*      N/A     77  70  78 CALM      30.03S
PIKE CO APT*     N/A     78  69  73 CALM      30.02S
BIG SANDY APT* CLEAR     83  71  65 CALM      30.00S
MOREHEAD APT*  CLEAR     82  73  74 CALM      30.00R
ASHLAND*       CLEAR     82  77  83 CALM      29.94S HX  91
$$

KYZ035-036-041-042-044-050-067-078-099-240200
...CENTRAL KENTUCKY...

CITY           SKY/WX    TMP DP  RH WIND       PRES   REMARKS
MT STERLING*   CLEAR     81  75  83 CALM      30.00R
FLEMING/MASON* CLEAR     84  74  70 CALM      29.99S HX  91
DANVILLE*      PTCLDY    81  73  78 CALM      30.00R
RICHMOND*      PTCLDY    86  72  62 CALM      29.98S HX  92
LEXINGTON      CLOUDY    86  74  67 W3        29.98R HX  94
FRANKFORT      CLEAR     85  73  67 CALM      29.96R HX  91
LOUISVILLE     MOCLDY    89  71  55 S8        29.95R HX  95
LEBANON*         N/A     86  73  66 SE3       29.99R HX  93
GLASGOW*       CLEAR     84  75  74 CALM      29.97R HX  92
BOWLING GREEN  PTCLDY    87  78  74 S9        29.96R HX 100
$$

KYZ091>093-OHZ055-061-077-WVZ005-015-034-035-042-240200
...SOUTHERN OHIO/WEST VIRGINIA...

CITY           SKY/WX    TMP DP  RH WIND       PRES   REMARKS
COVINGTON      PTCLDY    86  73  65 NW5       29.97R HX  93
COLUMBUS       MOCLDY    86  70  58 CALM      29.96R HX  90
DAYTON         PTCLDY    83  72  69 W5        29.99R
WILMINGTON     PTCLDY    82  76  81 CALM      29.97S
HUNTINGTON       N/A     85  74  69 CALM      29.97S HX  92
CHARLESTON       N/A     84  72  67 CALM      29.99R
PINEVILLE*       N/A     77  72  83 MISG      30.08S
BECKLEY          N/A     80  68  66 NE5       30.08S
BLUEFIELD        N/A     80  64  58 CALM      30.11R
LOGAN CO APT*    N/A     84  72  65 CALM      30.02S
$$

VAZ002-007-008-TNZ017-027-036-066-071-240200
...SOUTHWEST VIRGINIA/EAST TENNESSEE...

CITY           SKY/WX    TMP DP  RH WIND       PRES   REMARKS
WISE*            N/A     73  61  64 CALM      30.11S
JONESVILLE*      N/A     82  72  69 S6        30.04R
ABINGDON*        N/A     82  69  65 N3        30.06S
BRISTOL        MOCLDY    80  68  66 S3        30.01S
MORRISTOWN*    CLEAR     81  70  69 W9        30.02R
SEVIERVILLE*   CLEAR     77  68  73 W5        30.01R
KNOXVILLE      CLOUDY    77  71  82 SE6       30.01S
OAK RIDGE      PTCLDY    78  71  79 S6        30.02S
CROSSVILLE     CLOUDY    75  68  78 CALM      30.06F
NASHVILLE      MOCLDY    83  70  64 S10       29.98R
$$

...KEY TO REMARKS...
VSB - VISIBILITY IN MILES
WCI - WIND CHILL INDEX
HX  - HEAT INDEX

$$




USA.gov is the U.S. government's official web portal to all federal, state and local government web resources and services.